N0JVW-13 Weather Reports


Display with metric or nautical units.
time (UTC)temp
F
wind
direction
speed
MPH
gust
MPH
rain 1hr
in
rain 24hr
in
rain mn
in
humidity
%
barometer
mb
20260904144041 82 119 0.0 2.0 0.00 0.00 0.00 71 1012.7
20260904143520 82 132 0.0 0.0 0.00 0.00 0.00 71 1012.8
20260904143122 81 133 0.0 2.0 0.00 0.00 0.00 71 1012.8
20260904142543 81 132 0.0 2.0 0.00 0.00 0.00 70 1012.8
20260904142022 81 124 0.0 2.0 0.00 0.00 0.00 70 1012.8
20260904141501 80 160 0.0 2.0 0.00 0.00 0.00 69 1012.6
20260904141044 80 176 0.0 2.0 0.00 0.00 0.00 69 1012.7
20260904140528 80 148 0.0 2.0 0.00 0.00 0.00 66 1012.6
20260904140004 79 122 0.0 1.0 0.00 0.00 0.00 67 1012.6
20260904135547 79 157 0.0 1.0 0.00 0.00 0.00 65 1012.6
20260904135027 79 157 0.0 2.0 0.00 0.00 0.00 65 1012.6
20260904134506 78 162 0.0 0.0 0.00 0.00 0.00 64 1012.6
20260904134050 78 160 0.0 0.0 0.00 0.00 0.00 64 1012.7
20260904133529 78 151 0.0 0.0 0.00 0.00 0.00 61 1012.7
20260904133010 77 153 0.0 0.0 0.00 0.00 0.00 60 1012.7
20260904132553 77 132 0.0 0.0 0.00 0.00 0.00 57 1012.8
20260904132032 76 132 0.0 0.0 0.00 0.00 0.00 58 1012.7
20260904131512 76 132 0.0 0.0 0.00 0.00 0.00 55 1012.6
20260904131059 76 132 0.0 0.0 0.00 0.00 0.00 53 1012.5
20260904130535 75 159 0.0 1.0 0.00 0.00 0.00 54 1012.5
20260904130014 75 159 0.0 2.0 0.00 0.00 0.00 53 1012.4
20260904125558 75 146 0.0 2.0 0.00 0.00 0.00 52 1012.4
20260904125038 75 146 0.0 1.0 0.00 0.00 0.00 50 1012.3
20260904124517 75 117 0.0 1.0 0.00 0.00 0.00 49 1012.2
20260904124100 74 114 0.0 0.0 0.00 0.00 0.00 48 1012.1
20260904123540 74 154 0.0 0.0 0.00 0.00 0.00 47 1012.1
20260904123020 74 154 0.0 0.0 0.00 0.00 0.00 47 1012.0
20260904122606 74 155 0.0 0.0 0.00 0.00 0.00 45 1012.0
20260904122042 74 154 0.0 0.0 0.00 0.00 0.00 45 1012.0
20260904121519 74 154 0.0 0.0 0.00 0.00 0.00 44 1012.0
20260904121103 74 155 0.0 0.0 0.00 0.00 0.00 46 1011.9
20260904120541 74 154 0.0 0.0 0.00 0.00 0.00 46 1011.8
20260904120032 74 154 0.0 0.0 0.00 0.00 0.00 47 1011.7
20260904115501 74 154 0.0 0.0 0.00 0.00 0.00 50 1011.7
20260904115045 74 154 0.0 0.0 0.00 0.00 0.00 50 1011.8
20260904114524 74 154 0.0 1.0 0.00 0.00 0.00 51 1011.7
20260904114003 74 153 0.0 1.0 0.00 0.00 0.00 53 1011.7
20260904113544 74 144 0.0 0.0 0.00 0.00 0.00 56 1011.7
20260904113024 74 141 0.0 0.0 0.00 0.00 0.00 58 1011.6
20260904112502 74 141 0.0 0.0 0.00 0.00 0.00 59 1011.6
20260904112045 74 141 0.0 0.0 0.00 0.00 0.00 59 1011.6
20260904111525 75 141 0.0 0.0 0.00 0.00 0.00 59 1011.5
20260904111004 75 141 0.0 0.0 0.00 0.00 0.00 60 1011.5
20260904110549 75 141 0.0 0.0 0.00 0.00 0.00 60 1011.4
20260904110027 75 141 0.0 0.0 0.00 0.00 0.00 62 1011.3
20260904105507 75 141 0.0 0.0 0.00 0.00 0.00 62 1011.2
20260904105051 75 141 0.0 0.0 0.00 0.00 0.00 63 1011.3
20260904104527 75 141 0.0 0.0 0.00 0.00 0.00 64 1011.2
20260904104009 75 141 0.0 0.0 0.00 0.00 0.00 64 1011.2
20260904103551 75 141 0.0 0.0 0.00 0.00 0.00 64 1011.1
20260904103031 75 141 0.0 0.0 0.00 0.00 0.00 65 1011.1
20260904102510 75 141 0.0 0.0 0.00 0.00 0.00 65 1011.0
20260904102054 75 141 0.0 0.0 0.00 0.00 0.00 65 1011.1
20260904101535 75 141 0.0 0.0 0.00 0.00 0.00 66 1011.0
20260904101018 76 141 0.0 0.0 0.00 0.00 0.00 66 1011.0
20260904100556 76 141 0.0 0.0 0.00 0.00 0.00 66 1011.0
20260904100036 76 141 0.0 0.0 0.00 0.00 0.00 67 1010.9
20260904095519 76 141 0.0 0.0 0.00 0.00 0.00 67 1010.9
20260904095058 76 141 0.0 0.0 0.00 0.00 0.00 67 1010.9
20260904094538 76 141 0.0 0.0 0.00 0.00 0.00 68 1010.8
20260904094018 76 141 0.0 1.0 0.00 0.00 0.00 68 1010.7
20260904093601 76 141 0.0 1.0 0.00 0.00 0.00 68 1010.7
20260904093040 76 141 0.0 0.0 0.00 0.00 0.00 69 1010.7
20260904092518 76 141 0.0 0.0 0.00 0.00 0.00 69 1010.6
20260904092103 76 141 0.0 0.0 0.00 0.00 0.00 69 1010.6
20260904091542 76 141 0.0 0.0 0.00 0.00 0.00 69 1010.6
20260904091024 76 141 0.0 0.0 0.00 0.00 0.00 69 1010.5
20260904090500 77 141 0.0 0.0 0.00 0.00 0.00 70 1010.5
20260904090044 77 141 0.0 0.0 0.00 0.00 0.00 70 1010.4
20260904085524 77 141 0.0 0.0 0.00 0.00 0.00 70 1010.3
20260904085003 77 141 0.0 0.0 0.00 0.00 0.00 70 1010.3
20260904084555 77 141 0.0 0.0 0.00 0.00 0.00 71 1010.2
20260904084026 77 141 0.0 0.0 0.00 0.00 0.00 71 1010.2
20260904083507 77 141 0.0 0.0 0.00 0.00 0.00 71 1010.3
20260904083053 77 141 0.0 0.0 0.00 0.00 0.00 71 1010.3
20260904082529 77 141 0.0 0.0 0.00 0.00 0.00 71 1010.2
20260904082010 77 141 0.0 1.0 0.00 0.00 0.00 71 1010.2
20260904081553 77 129 0.0 1.0 0.00 0.00 0.00 71 1010.2
20260904081035 77 129 0.0 0.0 0.00 0.00 0.00 71 1010.1
20260904080511 77 129 0.0 0.0 0.00 0.00 0.00 71 1010.1
20260904080115 78 129 0.0 0.0 0.00 0.00 0.00 71 1010.1
20260904075535 78 129 0.0 0.0 0.00 0.00 0.00 71 1010.2
20260904075012 78 129 0.0 0.0 0.00 0.00 0.00 71 1010.1
20260904074557 78 129 0.0 0.0 0.00 0.00 0.00 71 1010.1
20260904074041 78 129 0.0 0.0 0.00 0.00 0.00 71 1010.1
20260904073514 78 129 0.0 0.0 0.00 0.00 0.00 71 1010.1
20260904073057 78 129 0.0 0.0 0.00 0.00 0.00 71 1010.1
20260904072540 78 129 0.0 0.0 0.00 0.00 0.00 71 1010.0
20260904072016 78 129 0.0 0.0 0.00 0.00 0.00 71 1010.0
20260904071603 78 129 0.0 0.0 0.00 0.00 0.00 71 1010.0
20260904071039 79 129 0.0 0.0 0.00 0.00 0.00 71 1010.0
20260904070526 79 129 0.0 0.0 0.00 0.00 0.00 71 1010.1
20260904065541 79 129 0.0 0.0 0.00 0.00 0.00 71 1010.1
20260904065021 79 129 0.0 0.0 0.00 0.00 0.00 71 1010.1
20260904064501 79 129 0.0 0.0 0.00 0.00 0.00 71 1010.2
20260904064045 79 129 0.0 0.0 0.00 0.00 0.00 71 1010.1
20260904063524 79 129 0.0 0.0 0.00 0.00 0.00 71 1010.0
20260904063004 79 129 0.0 0.0 0.00 0.00 0.00 71 1010.1
20260904062547 79 129 0.0 0.0 0.00 0.00 0.00 71 1010.1
20260904062027 79 129 0.0 0.0 0.00 0.00 0.00 70 1010.1
20260904061507 80 129 0.0 0.0 0.00 0.00 0.00 70 1010.1
20260904061053 80 129 0.0 0.0 0.00 0.00 0.00 70 1010.0
20260904060530 80 129 0.0 0.0 0.00 0.00 0.00 70 1009.9
20260904060012 80 129 0.0 0.0 0.00 0.00 0.00 69 1010.0
20260904055555 80 129 0.0 0.0 0.00 0.00 0.00 69 1010.0
20260904055033 80 129 0.0 0.0 0.00 0.00 0.00 69 1010.0
20260904054527 81 129 0.0 0.0 0.00 0.00 0.00 69 1009.9
20260904054056 81 129 0.0 0.0 0.00 0.00 0.00 68 1010.0
20260904053535 81 129 0.0 0.0 0.00 0.00 0.00 69 1009.9
20260904053019 81 129 0.0 0.0 0.00 0.00 0.00 68 1009.9
20260904052601 81 129 0.0 0.0 0.00 0.00 0.00 68 1009.9
20260904052038 81 129 0.0 1.0 0.00 0.00 0.00 67 1009.9
20260904051520 81 129 0.0 1.0 0.00 0.00 0.00 67 1009.7
20260904051100 81 143 0.0 0.0 0.00 0.00 0.00 67 1009.7
20260904050540 81 143 0.0 1.0 0.00 0.00 0.00 67 1009.7
20260904050020 81 143 0.0 0.0 0.00 0.00 0.00 67 1009.7
20260904045602 81 143 0.0 0.0 0.00 0.00 0.00 68 1009.7
20260904045040 80 143 0.0 0.0 0.00 0.00 0.00 69 1009.6
20260904044519 80 143 0.0 0.0 0.00 0.00 0.00 70 1009.7
20260904044102 80 143 0.0 0.0 0.00 0.00 0.00 70 1009.6
20260904043543 80 143 0.0 0.0 0.00 0.00 0.00 70 1009.7
20260904043034 79 143 0.0 0.0 0.00 0.00 0.00 71 1009.6
20260904042504 79 143 0.0 0.0 0.00 0.00 0.00 71 1009.6
20260904042047 80 143 0.0 0.0 0.00 0.00 0.00 70 1009.7
20260904041524 80 143 0.0 0.0 0.00 0.00 0.00 70 1009.6
20260904041003 80 143 0.0 0.0 0.00 0.00 0.00 70 1009.6
20260904040545 80 143 0.0 0.0 0.00 0.00 0.00 71 1009.6
20260904040025 80 143 0.0 0.0 0.00 0.00 0.00 70 1009.6
20260904035505 80 143 0.0 0.0 0.00 0.00 0.00 70 1009.7
20260904035050 81 143 0.0 0.0 0.00 0.00 0.00 70 1009.7
20260904034528 81 143 0.0 0.0 0.00 0.00 0.00 70 1009.6
20260904034006 81 143 0.0 0.0 0.00 0.00 0.00 69 1009.7
20260904033550 81 143 0.0 0.0 0.00 0.00 0.00 70 1009.7
20260904033032 81 143 0.0 0.0 0.00 0.00 0.00 69 1009.6
20260904032508 81 143 0.0 0.0 0.00 0.00 0.00 69 1009.6
20260904032056 81 143 0.0 0.0 0.00 0.00 0.00 69 1009.7
20260904031532 81 143 0.0 0.0 0.00 0.00 0.00 69 1009.6
20260904031011 81 143 0.0 0.0 0.00 0.00 0.00 68 1009.7
20260904030559 81 143 0.0 0.0 0.00 0.00 0.00 68 1009.7
20260904030051 82 143 0.0 0.0 0.00 0.00 0.00 67 1009.6
20260904025514 82 143 0.0 0.0 0.00 0.00 0.00 66 1009.6
20260904025058 82 143 0.0 0.0 0.00 0.00 0.00 66 1009.6
20260904024537 82 143 0.0 0.0 0.00 0.00 0.00 66 1009.5
20260904024014 82 143 0.0 0.0 0.00 0.00 0.00 64 1009.5
20260904023559 83 143 0.0 0.0 0.00 0.00 0.00 64 1009.4
20260904023039 83 143 0.0 0.0 0.00 0.00 0.00 63 1009.4
20260904022518 83 143 0.0 0.0 0.00 0.00 0.00 63 1009.3
20260904022102 84 143 0.0 0.0 0.00 0.00 0.00 62 1009.3
20260904021555 84 143 0.0 0.0 0.00 0.00 0.00 62 1009.2
20260904021021 84 143 0.0 0.0 0.00 0.00 0.00 61 1009.0
20260904020501 85 143 0.0 0.0 0.00 0.00 0.00 60 1009.0
20260904020045 85 143 0.0 0.0 0.00 0.00 0.00 59 1008.9
20260904015527 85 143 0.0 0.0 0.00 0.00 0.00 59 1008.9
20260904015003 86 143 0.0 0.0 0.00 0.00 0.00 59 1008.8
20260904014553 86 143 0.0 0.0 0.00 0.00 0.00 58 1008.8
20260904014031 87 143 0.0 0.0 0.00 0.00 0.00 58 1008.6
20260904013504 87 143 0.0 0.0 0.00 0.00 0.00 56 1008.6
20260904013112 87 143 0.0 0.0 0.00 0.00 0.00 56 1008.5
20260904012528 87 143 0.0 0.0 0.00 0.00 0.00 55 1008.5
20260904012007 88 143 0.0 0.0 0.00 0.00 0.00 55 1008.4
20260904011621 88 143 0.0 0.0 0.00 0.00 0.00 54 1008.4
20260904011029 88 143 0.0 0.0 0.00 0.00 0.00 54 1008.4
20260904010508 88 143 0.0 0.0 0.00 0.00 0.00 54 1008.4
20260904010053 89 143 0.0 0.0 0.00 0.00 0.00 53 1008.3
20260904005532 89 143 0.0 0.0 0.00 0.00 0.00 53 1008.3
20260904005010 89 143 0.0 0.0 0.00 0.00 0.00 52 1008.3
20260904004554 90 143 0.0 0.0 0.00 0.00 0.00 52 1008.3
20260904004036 90 143 0.0 0.0 0.00 0.00 0.00 51 1008.3
20260904003513 90 143 0.0 0.0 0.00 0.00 0.00 50 1008.3
20260904003056 91 143 0.0 1.0 0.00 0.00 0.00 50 1008.4
20260904002533 91 129 0.0 1.0 0.00 0.00 0.00 49 1008.3
20260904002013 91 143 0.0 1.0 0.00 0.00 0.00 49 1008.4
20260904001555 92 143 0.0 1.0 0.00 0.00 0.00 49 1008.4
20260904001034 92 143 0.0 1.0 0.00 0.00 0.00 48 1008.4
20260904000514 92 122 0.0 1.0 0.00 0.00 0.00 48 1008.5
20260904000057 92 122 0.0 3.0 0.00 0.00 0.00 48 1008.5
20260903235537 93 137 0.0 3.0 0.00 0.00 0.00 46 1008.4
20260903235016 93 153 0.0 3.0 0.00 0.00 0.00 46 1008.4
20260903234600 93 129 0.0 1.0 0.00 0.00 0.00 47 1008.4
20260903234040 93 137 0.0 2.0 0.00 0.00 0.00 46 1008.4
20260903233519 93 151 0.0 2.0 0.00 0.00 0.00 46 1008.5
20260903233107 93 156 0.0 2.0 0.00 0.00 0.00 46 1008.4
20260903232541 93 139 0.0 3.0 0.00 0.00 0.00 46 1008.4
20260903232021 94 130 1.0 3.0 0.00 0.00 0.00 45 1008.4
20260903231501 94 114 1.0 3.0 0.00 0.00 0.00 45 1008.4
20260903231045 94 122 1.0 3.0 0.00 0.00 0.00 45 1008.4
20260903230527 94 136 0.0 3.0 0.00 0.00 0.00 45 1008.4
20260903230005 94 160 1.0 3.0 0.00 0.00 0.00 45 1008.5
20260903225549 94 135 0.0 3.0 0.00 0.00 0.00 45 1008.5
20260903225028 94 149 0.0 4.0 0.00 0.00 0.00 46 1008.5
20260903224508 94 158 0.0 4.0 0.00 0.00 0.00 46 1008.6
20260903224051 94 105 0.0 3.0 0.00 0.00 0.00 46 1008.5
20260903223531 94 157 0.0 3.0 0.00 0.00 0.00 46 1008.6
20260903223012 94 174 0.0 3.0 0.00 0.00 0.00 45 1008.6
20260903222556 94 150 0.0 3.0 0.00 0.00 0.00 45 1008.7
20260903222035 94 143 1.0 3.0 0.00 0.00 0.00 45 1008.7
20260903221514 94 158 0.0 2.0 0.00 0.00 0.00 45 1008.6
20260903221058 94 138 0.0 3.0 0.00 0.00 0.00 45 1008.6
20260903220537 94 156 0.0 3.0 0.00 0.00 0.00 45 1008.6
20260903220021 94 156 0.0 2.0 0.00 0.00 0.00 45 1008.7
20260903215601 94 132 0.0 3.0 0.00 0.00 0.00 45 1008.7
20260903215041 94 117 0.0 4.0 0.00 0.00 0.00 45 1008.8
20260903214519 94 144 1.0 3.0 0.00 0.00 0.00 44 1008.7
20260903214104 94 159 0.0 4.0 0.00 0.00 0.00 44 1008.8
20260903213542 95 159 0.0 4.0 0.00 0.00 0.00 44 1008.8
20260903213021 94 128 0.0 1.0 0.00 0.00 0.00 46 1008.8
20260903212501 95 127 0.0 2.0 0.00 0.00 0.00 45 1008.8
20260903212045 95 149 0.0 4.0 0.00 0.00 0.00 44 1008.9
20260903211533 95 154 1.0 4.0 0.00 0.00 0.00 44 1008.9
20260903211002 95 155 1.0 3.0 0.00 0.00 0.00 45 1008.9
20260903210545 95 165 0.0 2.0 0.00 0.00 0.00 45 1008.9
20260903210025 94 108 0.0 2.0 0.00 0.00 0.00 45 1009.0
20260903205507 94 145 0.0 3.0 0.00 0.00 0.00 45 1009.0
20260903205048 94 179 0.0 5.0 0.00 0.00 0.00 45 1009.0
20260903204528 95 163 1.0 5.0 0.00 0.00 0.00 44 1009.0
20260903204006 95 134 1.0 4.0 0.00 0.00 0.00 46 1009.1
20260903203550 94 146 0.0 4.0 0.00 0.00 0.00 45 1009.1
20260903203038 94 156 0.0 4.0 0.00 0.00 0.00 46 1009.2
20260903202518 94 159 0.0 3.0 0.00 0.00 0.00 47 1009.2
20260903202101 94 131 0.0 3.0 0.00 0.00 0.00 46 1009.2
20260903201541 95 155 1.0 4.0 0.00 0.00 0.00 46 1009.3
20260903201019 95 169 1.0 5.0 0.00 0.00 0.00 46 1009.3
20260903200559 95 170 1.0 5.0 0.00 0.00 0.00 46 1009.3
20260903200040 94 143 0.0 6.0 0.00 0.00 0.00 46 1009.4
20260903195518 94 167 2.0 5.0 0.00 0.00 0.00 46 1009.5
20260903195101 95 163 1.0 4.0 0.00 0.00 0.00 46 1009.5
20260903194541 94 153 0.0 5.0 0.00 0.00 0.00 46 1009.5
20260903194021 94 117 0.0 5.0 0.00 0.00 0.00 47 1009.6
20260903193604 95 161 1.0 5.0 0.00 0.00 0.00 46 1009.7
20260903193044 94 176 0.0 4.0 0.00 0.00 0.00 48 1009.6
20260903192524 94 155 0.0 5.0 0.00 0.00 0.00 48 1009.7
20260903192001 94 134 1.0 4.0 0.00 0.00 0.00 47 1009.8
20260903191545 94 181 0.0 4.0 0.00 0.00 0.00 47 1009.8
20260903191025 94 165 1.0 4.0 0.00 0.00 0.00 47 1009.9
20260903190505 94 88 1.0 4.0 0.00 0.00 0.00 47 1010.0
20260903190045 94 167 1.0 6.0 0.00 0.00 0.00 49 1010.0
20260903185524 94 129 0.0 6.0 0.00 0.00 0.00 49 1010.0
20260903185004 93 135 0.0 6.0 0.00 0.00 0.00 50 1010.1
20260903184550 93 162 0.0 6.0 0.00 0.00 0.00 50 1010.2
20260903184029 93 205 2.0 4.0 0.00 0.00 0.00 48 1010.1
20260903183514 93 129 1.0 4.0 0.00 0.00 0.00 49 1010.2
20260903183055 93 125 1.0 4.0 0.00 0.00 0.00 50 1010.2
20260903182529 93 170 0.0 4.0 0.00 0.00 0.00 51 1010.3
20260903182009 93 160 1.0 3.0 0.00 0.00 0.00 50 1010.4
20260903181552 93 147 0.0 3.0 0.00 0.00 0.00 50 1010.4
20260903181031 93 134 0.0 3.0 0.00 0.00 0.00 52 1010.6
20260903180511 92 117 0.0 3.0 0.00 0.00 0.00 51 1010.7
20260903180054 92 117 0.0 4.0 0.00 0.00 0.00 52 1010.8
20260903175535 92 173 1.0 4.0 0.00 0.00 0.00 52 1010.8
20260903175012 92 187 0.0 4.0 0.00 0.00 0.00 51 1011.0
20260903174556 92 163 1.0 4.0 0.00 0.00 0.00 52 1011.0
20260903174036 92 154 1.0 4.0 0.00 0.00 0.00 52 1011.0
20260903173532 91 176 1.0 5.0 0.00 0.00 0.00 52 1011.0
20260903173059 91 169 1.0 5.0 0.00 0.00 0.00 52 1011.1
20260903172535 91 161 1.0 5.0 0.00 0.00 0.00 53 1011.2
20260903172014 91 156 1.0 4.0 0.00 0.00 0.00 54 1011.2
20260903171611 91 166 0.0 4.0 0.00 0.00 0.00 57 1011.2
20260903171037 91 174 1.0 4.0 0.00 0.00 0.00 55 1011.3
20260903170517 90 153 1.0 3.0 0.00 0.00 0.00 55 1011.3
20260903165541 90 149 0.0 4.0 0.00 0.00 0.00 56 1011.4
20260903165018 90 157 1.0 4.0 0.00 0.00 0.00 57 1011.4
20260903164602 89 120 0.0 3.0 0.00 0.00 0.00 58 1011.5
20260903164042 89 158 0.0 3.0 0.00 0.00 0.00 58 1011.5
20260903163522 89 196 0.0 3.0 0.00 0.00 0.00 58 1011.5
20260903163002 89 153 0.0 3.0 0.00 0.00 0.00 59 1011.7
20260903162544 89 139 0.0 3.0 0.00 0.00 0.00 59 1011.6
20260903162024 88 164 0.0 3.0 0.00 0.00 0.00 60 1011.6
20260903161502 88 179 0.0 3.0 0.00 0.00 0.00 62 1011.7
20260903161045 88 156 1.0 3.0 0.00 0.00 0.00 62 1011.7
20260903160525 87 170 0.0 3.0 0.00 0.00 0.00 62 1011.7
20260903160005 87 180 0.0 4.0 0.00 0.00 0.00 61 1011.8
20260903155548 87 136 0.0 4.0 0.00 0.00 0.00 62 1011.8
20260903155035 87 137 0.0 4.0 0.00 0.00 0.00 63 1011.7
20260903154508 86 134 0.0 4.0 0.00 0.00 0.00 64 1011.7
20260903154052 86 135 0.0 1.0 0.00 0.00 0.00 66 1011.7
20260903153530 86 136 0.0 2.0 0.00 0.00 0.00 65 1011.7
20260903153009 86 157 0.0 2.0 0.00 0.00 0.00 65 1011.7
20260903152553 85 162 0.0 3.0 0.00 0.00 0.00 66 1011.7
20260903152032 85 166 1.0 3.0 0.00 0.00 0.00 67 1011.8
20260903151512 84 121 0.0 1.0 0.00 0.00 0.00 68 1011.8
20260903151055 84 113 0.0 1.0 0.00 0.00 0.00 68 1011.8
20260903150535 84 165 0.0 1.0 0.00 0.00 0.00 69 1011.8
20260903150020 83 133 0.0 2.0 0.00 0.00 0.00 69 1011.8
20260903145601 83 162 0.0 3.0 0.00 0.00 0.00 69 1011.9
20260903145038 83 160 0.0 4.0 0.00 0.00 0.00 69 1011.9
20260903144518 83 196 1.0 4.0 0.00 0.00 0.00 70 1011.8